owner,sensor,date,latitude,longitude,vertical_datum,wind_speed,wind_to_direction,wind_speed_of_gust,qcFlag 
ADCP,ioos:station:wmo:42369:1,2014-02-01T00:00:00Z,27.2070,-90.2830,60.4,3.7,84.0,99.0,'11111222,11111222,11144222' 
ADCP,ioos:station:wmo:42369:1,2014-02-01T00:20:00Z,27.2070,-90.2830,60.4,4.1,86.0,99.0,'11111222,11111222,11144222' 
ADCP,ioos:station:wmo:42369:1,2014-02-01T00:40:00Z,27.2070,-90.2830,60.4,4.0,92.0,99.0,'11111222,11111222,11144222' 
ADCP,ioos:station:wmo:42369:1,2014-02-01T01:00:00Z,27.2070,-90.2830,60.4,4.0,92.0,99.0,'11111222,11111222,11144222' 
ADCP,ioos:station:wmo:42369:1,2014-02-01T01:20:00Z,27.2070,-90.2830,60.4,4.3,90.0,99.0,'11111222,11111222,11144222' 
ADCP,ioos:station:wmo:42369:1,2014-02-01T01:40:00Z,27.2070,-90.2830,60.4,4.3,90.0,99.0,'11111222,11111222,11144222' 
ADCP,ioos:station:wmo:42369:1,2014-02-01T02:00:00Z,27.2070,-90.2830,60.4,4.6,98.0,99.0,'11111222,11111222,11144222' 
ADCP,ioos:station:wmo:42369:1,2014-02-01T02:20:00Z,27.2070,-90.2830,60.4,3.9,107.0,99.0,'11111222,11111222,11144222' 
ADCP,ioos:station:wmo:42369:1,2014-02-01T02:40:00Z,27.2070,-90.2830,60.4,4.0,93.0,99.0,'11111222,11111222,11144222' 
ADCP,ioos:station:wmo:42369:1,2014-02-01T03:00:00Z,27.2070,-90.2830,60.4,3.6,89.0,99.0,'11111222,11111222,11144222' 
ADCP,ioos:station:wmo:42369:1,2014-02-01T03:20:00Z,27.2070,-90.2830,60.4,3.8,96.0,99.0,'11111222,11111222,11144222' 
ADCP,ioos:station:wmo:42369:1,2014-02-01T03:40:00Z,27.2070,-90.2830,60.4,3.8,96.0,99.0,'11111222,11111222,11144222' 
ADCP,ioos:station:wmo:42369:1,2014-02-01T04:00:00Z,27.2070,-90.2830,60.4,4.0,101.0,99.0,'11111222,11111222,11144222' 
ADCP,ioos:station:wmo:42369:1,2014-02-01T04:20:00Z,27.2070,-90.2830,60.4,4.0,101.0,99.0,'11111222,11111222,11144222' 
ADCP,ioos:station:wmo:42369:1,2014-02-01T04:40:00Z,27.2070,-90.2830,60.4,3.8,103.0,99.0,'11111222,11111222,11144222' 
ADCP,ioos:station:wmo:42369:1,2014-02-01T05:00:00Z,27.2070,-90.2830,60.4,3.9,98.0,99.0,'11111222,11111222,11144222' 
ADCP,ioos:station:wmo:42369:1,2014-02-01T05:20:00Z,27.2070,-90.2830,60.4,3.9,98.0,99.0,'11111222,11111222,11144222' 
ADCP,ioos:station:wmo:42369:1,2014-02-01T05:40:00Z,27.2070,-90.2830,60.4,3.9,98.0,99.0,'11111222,11111222,11144222' 
ADCP,ioos:station:wmo:42369:1,2014-02-01T06:00:00Z,27.2070,-90.2830,60.4,4.4,106.0,99.0,'11111222,11111222,11144222' 
ADCP,ioos:station:wmo:42369:1,2014-02-01T06:20:00Z,27.2070,-90.2830,60.4,4.4,106.0,99.0,'11111222,11111222,11144222' 
ADCP,ioos:station:wmo:42369:1,2014-02-01T06:40:00Z,27.2070,-90.2830,60.4,5.1,109.0,99.0,'11111222,11111222,11144222' 
ADCP,ioos:station:wmo:42369:1,2014-02-01T07:00:00Z,27.2070,-90.2830,60.4,4.8,112.0,99.0,'11111222,11111222,11144222' 
ADCP,ioos:station:wmo:42369:1,2014-02-01T07:20:00Z,27.2070,-90.2830,60.4,4.5,114.0,99.0,'11111222,11111222,11144222' 
ADCP,ioos:station:wmo:42369:1,2014-02-01T07:40:00Z,27.2070,-90.2830,60.4,4.0,118.0,99.0,'11111222,11111222,11144222' 
ADCP,ioos:station:wmo:42369:1,2014-02-01T08:00:00Z,27.2070,-90.2830,60.4,4.0,118.0,99.0,'11111222,11111222,11144222' 
ADCP,ioos:station:wmo:42369:1,2014-02-01T08:20:00Z,27.2070,-90.2830,60.4,4.0,118.0,99.0,'11111222,11111222,11144222' 
ADCP,ioos:station:wmo:42369:1,2014-02-01T08:40:00Z,27.2070,-90.2830,60.4,4.0,118.0,99.0,'11111222,11111222,11144222' 
ADCP,ioos:station:wmo:42369:1,2014-02-01T09:00:00Z,27.2070,-90.2830,60.4,3.8,116.0,99.0,'11111222,11111222,11144222' 
ADCP,ioos:station:wmo:42369:1,2014-02-01T09:20:00Z,27.2070,-90.2830,60.4,3.8,116.0,99.0,'11111222,11111222,11144222' 
ADCP,ioos:station:wmo:42369:1,2014-02-01T09:40:00Z,27.2070,-90.2830,60.4,3.8,116.0,99.0,'11111222,11111222,11144222' 
ADCP,ioos:station:wmo:42369:1,2014-02-01T10:00:00Z,27.2070,-90.2830,60.4,5.2,123.0,99.0,'11111222,11111222,11144222' 
ADCP,ioos:station:wmo:42369:1,2014-02-01T10:20:00Z,27.2070,-90.2830,60.4,4.9,123.0,99.0,'11111222,11111222,11144222' 
ADCP,ioos:station:wmo:42369:1,2014-02-01T10:40:00Z,27.2070,-90.2830,60.4,5.3,120.0,99.0,'11111222,11111222,11144222' 
ADCP,ioos:station:wmo:42369:1,2014-02-01T11:00:00Z,27.2070,-90.2830,60.4,5.3,114.0,99.0,'11111222,11111222,11144222' 
ADCP,ioos:station:wmo:42369:1,2014-02-01T11:20:00Z,27.2070,-90.2830,60.4,5.3,114.0,99.0,'11111222,11111222,11144222' 
ADCP,ioos:station:wmo:42369:1,2014-02-01T11:40:00Z,27.2070,-90.2830,60.4,5.3,114.0,99.0,'11111222,11111222,11144222' 
ADCP,ioos:station:wmo:42369:1,2014-02-01T12:00:00Z,27.2070,-90.2830,60.4,5.7,114.0,99.0,'11111222,11111222,11144222' 
ADCP,ioos:station:wmo:42369:1,2014-02-01T12:20:00Z,27.2070,-90.2830,60.4,5.7,107.0,99.0,'11111222,11111222,11144222' 
ADCP,ioos:station:wmo:42369:1,2014-02-01T12:40:00Z,27.2070,-90.2830,60.4,6.2,102.0,99.0,'11111222,11111222,11144222' 
ADCP,ioos:station:wmo:42369:1,2014-02-01T13:00:00Z,27.2070,-90.2830,60.4,6.2,102.0,99.0,'11111222,11111222,11144222' 
ADCP,ioos:station:wmo:42369:1,2014-02-01T13:20:00Z,27.2070,-90.2830,60.4,5.7,96.0,99.0,'11111222,11111222,11144222' 
ADCP,ioos:station:wmo:42369:1,2014-02-01T13:40:00Z,27.2070,-90.2830,60.4,5.7,96.0,99.0,'11111222,11111222,11144222' 
ADCP,ioos:station:wmo:42369:1,2014-02-01T14:00:00Z,27.2070,-90.2830,60.4,6.4,100.0,99.0,'11111222,11111222,11144222' 
ADCP,ioos:station:wmo:42369:1,2014-02-01T14:20:00Z,27.2070,-90.2830,60.4,6.4,100.0,99.0,'11111222,11111222,11144222' 
ADCP,ioos:station:wmo:42369:1,2014-02-01T14:40:00Z,27.2070,-90.2830,60.4,5.7,94.0,99.0,'11111222,11111222,11144222' 
ADCP,ioos:station:wmo:42369:1,2014-02-01T15:00:00Z,27.2070,-90.2830,60.4,5.7,94.0,99.0,'11111222,11111222,11144222' 
ADCP,ioos:station:wmo:42369:1,2014-02-01T15:20:00Z,27.2070,-90.2830,60.4,5.7,94.0,99.0,'11111222,11111222,11144222' 
ADCP,ioos:station:wmo:42369:1,2014-02-01T15:40:00Z,27.2070,-90.2830,60.4,8.4,112.0,99.0,'11111222,11111222,11144222' 
ADCP,ioos:station:wmo:42369:1,2014-02-01T16:00:00Z,27.2070,-90.2830,60.4,8.5,114.0,99.0,'11111222,11111222,11144222' 
ADCP,ioos:station:wmo:42369:1,2014-02-01T16:20:00Z,27.2070,-90.2830,60.4,8.5,114.0,99.0,'11111222,11111222,11144222' 
ADCP,ioos:station:wmo:42369:1,2014-02-01T16:40:00Z,27.2070,-90.2830,60.4,8.6,124.0,99.0,'11111222,11111222,11144222' 
ADCP,ioos:station:wmo:42369:1,2014-02-01T17:00:00Z,27.2070,-90.2830,60.4,8.5,125.0,99.0,'11111222,11111222,11144222' 
ADCP,ioos:station:wmo:42369:1,2014-02-01T17:20:00Z,27.2070,-90.2830,60.4,8.5,125.0,99.0,'11111222,11111222,11144222' 
ADCP,ioos:station:wmo:42369:1,2014-02-01T17:40:00Z,27.2070,-90.2830,60.4,8.5,125.0,99.0,'11111222,11111222,11144222' 
ADCP,ioos:station:wmo:42369:1,2014-02-01T18:00:00Z,27.2070,-90.2830,60.4,7.6,116.0,99.0,'11111222,11111222,11144222' 
ADCP,ioos:station:wmo:42369:1,2014-02-01T18:20:00Z,27.2070,-90.2830,60.4,7.6,116.0,99.0,'11111222,11111222,11144222' 
ADCP,ioos:station:wmo:42369:1,2014-02-01T18:40:00Z,27.2070,-90.2830,60.4,6.6,118.0,99.0,'11111222,11111222,11144222' 
ADCP,ioos:station:wmo:42369:1,2014-02-01T19:00:00Z,27.2070,-90.2830,60.4,6.6,118.0,99.0,'11111222,11111222,11144222' 
ADCP,ioos:station:wmo:42369:1,2014-02-01T19:20:00Z,27.2070,-90.2830,60.4,6.0,114.0,99.0,'11111222,11111222,11144222' 
ADCP,ioos:station:wmo:42369:1,2014-02-01T19:40:00Z,27.2070,-90.2830,60.4,6.1,107.0,99.0,'11111222,11111222,11144222' 
ADCP,ioos:station:wmo:42369:1,2014-02-01T20:00:00Z,27.2070,-90.2830,60.4,6.1,107.0,99.0,'11111222,11111222,11144222' 
ADCP,ioos:station:wmo:42369:1,2014-02-01T20:20:00Z,27.2070,-90.2830,60.4,6.1,107.0,99.0,'11111222,11111222,11144222' 
ADCP,ioos:station:wmo:42369:1,2014-02-01T20:40:00Z,27.2070,-90.2830,60.4,5.5,111.0,99.0,'11111222,11111222,11144222' 
ADCP,ioos:station:wmo:42369:1,2014-02-01T21:00:00Z,27.2070,-90.2830,60.4,6.0,113.0,99.0,'11111222,11111222,11144222' 
ADCP,ioos:station:wmo:42369:1,2014-02-01T21:20:00Z,27.2070,-90.2830,60.4,6.0,114.0,99.0,'11111222,11111222,11144222' 
ADCP,ioos:station:wmo:42369:1,2014-02-01T21:40:00Z,27.2070,-90.2830,60.4,6.0,112.0,99.0,'11111222,11111222,11144222' 
ADCP,ioos:station:wmo:42369:1,2014-02-01T22:00:00Z,27.2070,-90.2830,60.4,6.0,112.0,99.0,'11111222,11111222,11144222' 
ADCP,ioos:station:wmo:42369:1,2014-02-01T22:20:00Z,27.2070,-90.2830,60.4,6.0,112.0,99.0,'11111222,11111222,11144222' 
ADCP,ioos:station:wmo:42369:1,2014-02-01T22:40:00Z,27.2070,-90.2830,60.4,6.6,107.0,99.0,'11111222,11111222,11144222' 
ADCP,ioos:station:wmo:42369:1,2014-02-01T23:00:00Z,27.2070,-90.2830,60.4,6.6,107.0,99.0,'11111222,11111222,11144222' 
ADCP,ioos:station:wmo:42369:1,2014-02-01T23:20:00Z,27.2070,-90.2830,60.4,6.6,107.0,99.0,'11111222,11111222,11144222' 
ADCP,ioos:station:wmo:42369:1,2014-02-01T23:40:00Z,27.2070,-90.2830,60.4,6.4,104.0,99.0,'11111222,11111222,11144222' 
ADCP,ioos:station:wmo:42369:1,2014-02-02T00:00:00Z,27.2070,-90.2830,60.4,6.4,104.0,99.0,'11111222,11111222,11144222' 
ADCP,ioos:station:wmo:42369:1,2014-02-02T00:20:00Z,27.2070,-90.2830,60.4,6.4,104.0,99.0,'11111222,11111222,11144222' 
ADCP,ioos:station:wmo:42369:1,2014-02-02T00:40:00Z,27.2070,-90.2830,60.4,6.4,104.0,99.0,'11111222,11111222,11144222' 
ADCP,ioos:station:wmo:42369:1,2014-02-02T01:00:00Z,27.2070,-90.2830,60.4,6.4,104.0,99.0,'11111222,11111222,11144222' 
ADCP,ioos:station:wmo:42369:1,2014-02-02T01:20:00Z,27.2070,-90.2830,60.4,6.4,104.0,99.0,'11111222,11111222,11144222' 
ADCP,ioos:station:wmo:42369:1,2014-02-02T01:40:00Z,27.2070,-90.2830,60.4,7.0,100.0,99.0,'11111222,11111222,11144222' 
ADCP,ioos:station:wmo:42369:1,2014-02-02T02:00:00Z,27.2070,-90.2830,60.4,7.0,100.0,99.0,'11111222,11111222,11144222' 
ADCP,ioos:station:wmo:42369:1,2014-02-02T02:20:00Z,27.2070,-90.2830,60.4,7.0,100.0,99.0,'11111222,11111222,11144222' 
ADCP,ioos:station:wmo:42369:1,2014-02-02T02:40:00Z,27.2070,-90.2830,60.4,7.5,105.0,99.0,'11111222,11111222,11144222' 
ADCP,ioos:station:wmo:42369:1,2014-02-02T03:00:00Z,27.2070,-90.2830,60.4,6.9,115.0,99.0,'11111222,11111222,11144222' 
ADCP,ioos:station:wmo:42369:1,2014-02-02T03:20:00Z,27.2070,-90.2830,60.4,6.9,115.0,99.0,'11111222,11111222,11144222' 
ADCP,ioos:station:wmo:42369:1,2014-02-02T03:40:00Z,27.2070,-90.2830,60.4,6.6,114.0,99.0,'11111222,11111222,11144222' 
ADCP,ioos:station:wmo:42369:1,2014-02-02T04:00:00Z,27.2070,-90.2830,60.4,7.3,118.0,99.0,'11111222,11111222,11144222' 
ADCP,ioos:station:wmo:42369:1,2014-02-02T04:20:00Z,27.2070,-90.2830,60.4,7.3,118.0,99.0,'11111222,11111222,11144222' 
ADCP,ioos:station:wmo:42369:1,2014-02-02T04:40:00Z,27.2070,-90.2830,60.4,7.3,118.0,99.0,'11111222,11111222,11144222' 
ADCP,ioos:station:wmo:42369:1,2014-02-02T05:00:00Z,27.2070,-90.2830,60.4,7.5,123.0,99.0,'11111222,11111222,11144222' 
ADCP,ioos:station:wmo:42369:1,2014-02-02T05:20:00Z,27.2070,-90.2830,60.4,8.1,128.0,99.0,'11111222,11111222,11144222' 
ADCP,ioos:station:wmo:42369:1,2014-02-02T05:40:00Z,27.2070,-90.2830,60.4,8.4,126.0,99.0,'11111222,11111222,11144222' 
ADCP,ioos:station:wmo:42369:1,2014-02-02T06:00:00Z,27.2070,-90.2830,60.4,8.4,126.0,99.0,'11111222,11111222,11144222' 
ADCP,ioos:station:wmo:42369:1,2014-02-02T06:20:00Z,27.2070,-90.2830,60.4,8.4,126.0,99.0,'11111222,11111222,11144222' 
ADCP,ioos:station:wmo:42369:1,2014-02-02T06:40:00Z,27.2070,-90.2830,60.4,11.1,125.0,99.0,'11111222,11111222,11144222' 
ADCP,ioos:station:wmo:42369:1,2014-02-02T07:00:00Z,27.2070,-90.2830,60.4,11.1,125.0,99.0,'11111222,11111222,11144222' 
ADCP,ioos:station:wmo:42369:1,2014-02-02T07:20:00Z,27.2070,-90.2830,60.4,11.1,125.0,99.0,'11111222,11111222,11144222' 
ADCP,ioos:station:wmo:42369:1,2014-02-02T07:40:00Z,27.2070,-90.2830,60.4,11.1,125.0,99.0,'11111222,11111222,11144222' 
ADCP,ioos:station:wmo:42369:1,2014-02-02T08:00:00Z,27.2070,-90.2830,60.4,11.1,125.0,99.0,'11111222,11111222,11144222' 
ADCP,ioos:station:wmo:42369:1,2014-02-02T08:20:00Z,27.2070,-90.2830,60.4,9.2,121.0,99.0,'11111222,11111222,11144222' 
ADCP,ioos:station:wmo:42369:1,2014-02-02T08:40:00Z,27.2070,-90.2830,60.4,9.5,117.0,99.0,'11111222,11111222,11144222' 
ADCP,ioos:station:wmo:42369:1,2014-02-02T09:00:00Z,27.2070,-90.2830,60.4,9.5,117.0,99.0,'11111222,11111222,11144222' 
ADCP,ioos:station:wmo:42369:1,2014-02-02T09:20:00Z,27.2070,-90.2830,60.4,9.5,117.0,99.0,'11111222,11111222,11144222' 
ADCP,ioos:station:wmo:42369:1,2014-02-02T09:40:00Z,27.2070,-90.2830,60.4,9.3,122.0,99.0,'11111222,11111222,11144222' 
ADCP,ioos:station:wmo:42369:1,2014-02-02T10:00:00Z,27.2070,-90.2830,60.4,9.3,122.0,99.0,'11111222,11111222,11144222' 
ADCP,ioos:station:wmo:42369:1,2014-02-02T10:20:00Z,27.2070,-90.2830,60.4,11.2,135.0,99.0,'11111222,11111222,11144222' 
ADCP,ioos:station:wmo:42369:1,2014-02-02T10:40:00Z,27.2070,-90.2830,60.4,11.2,135.0,99.0,'11111222,11111222,11144222' 
ADCP,ioos:station:wmo:42369:1,2014-02-02T11:00:00Z,27.2070,-90.2830,60.4,10.7,135.0,99.0,'11111222,11111222,11144222' 
ADCP,ioos:station:wmo:42369:1,2014-02-02T11:20:00Z,27.2070,-90.2830,60.4,10.6,135.0,99.0,'11111222,11111222,11144222' 
ADCP,ioos:station:wmo:42369:1,2014-02-02T11:40:00Z,27.2070,-90.2830,60.4,10.6,135.0,99.0,'11111222,11111222,11144222' 
ADCP,ioos:station:wmo:42369:1,2014-02-02T12:00:00Z,27.2070,-90.2830,60.4,11.0,136.0,99.0,'11111222,11111222,11144222' 
ADCP,ioos:station:wmo:42369:1,2014-02-02T12:20:00Z,27.2070,-90.2830,60.4,10.8,135.0,99.0,'11111222,11111222,11144222' 
ADCP,ioos:station:wmo:42369:1,2014-02-02T12:40:00Z,27.2070,-90.2830,60.4,11.4,136.0,99.0,'11111222,11111222,11144222' 
ADCP,ioos:station:wmo:42369:1,2014-02-02T13:00:00Z,27.2070,-90.2830,60.4,9.1,136.0,99.0,'11111222,11111222,11144222' 
ADCP,ioos:station:wmo:42369:1,2014-02-02T13:20:00Z,27.2070,-90.2830,60.4,8.9,133.0,99.0,'11111222,11111222,11144222' 
ADCP,ioos:station:wmo:42369:1,2014-02-02T13:40:00Z,27.2070,-90.2830,60.4,8.9,133.0,99.0,'11111222,11111222,11144222' 
ADCP,ioos:station:wmo:42369:1,2014-02-02T14:00:00Z,27.2070,-90.2830,60.4,10.3,131.0,99.0,'11111222,11111222,11144222' 
ADCP,ioos:station:wmo:42369:1,2014-02-02T14:20:00Z,27.2070,-90.2830,60.4,10.3,131.0,99.0,'11111222,11111222,11144222' 
ADCP,ioos:station:wmo:42369:1,2014-02-02T14:40:00Z,27.2070,-90.2830,60.4,10.0,135.0,99.0,'11111222,11111222,11144222' 
ADCP,ioos:station:wmo:42369:1,2014-02-02T15:00:00Z,27.2070,-90.2830,60.4,10.2,132.0,99.0,'11111222,11111222,11144222' 
ADCP,ioos:station:wmo:42369:1,2014-02-02T15:20:00Z,27.2070,-90.2830,60.4,10.2,132.0,99.0,'11111222,11111222,11144222' 
ADCP,ioos:station:wmo:42369:1,2014-02-02T15:40:00Z,27.2070,-90.2830,60.4,10.2,132.0,99.0,'11111222,11111222,11144222' 
ADCP,ioos:station:wmo:42369:1,2014-02-02T16:00:00Z,27.2070,-90.2830,60.4,11.3,132.0,99.0,'11111222,11111222,11144222' 
ADCP,ioos:station:wmo:42369:1,2014-02-02T16:20:00Z,27.2070,-90.2830,60.4,11.3,132.0,99.0,'11111222,11111222,11144222' 
ADCP,ioos:station:wmo:42369:1,2014-02-02T16:40:00Z,27.2070,-90.2830,60.4,11.3,132.0,99.0,'11111222,11111222,11144222' 
ADCP,ioos:station:wmo:42369:1,2014-02-02T17:00:00Z,27.2070,-90.2830,60.4,11.1,130.0,99.0,'11111222,11111222,11144222' 
ADCP,ioos:station:wmo:42369:1,2014-02-02T17:20:00Z,27.2070,-90.2830,60.4,11.5,133.0,99.0,'11111222,11111222,11144222' 
ADCP,ioos:station:wmo:42369:1,2014-02-02T17:40:00Z,27.2070,-90.2830,60.4,11.5,133.0,99.0,'11111222,11111222,11144222' 
ADCP,ioos:station:wmo:42369:1,2014-02-02T18:00:00Z,27.2070,-90.2830,60.4,11.5,133.0,99.0,'11111222,11111222,11144222' 
ADCP,ioos:station:wmo:42369:1,2014-02-02T18:20:00Z,27.2070,-90.2830,60.4,11.5,133.0,99.0,'11111222,11111222,11144222' 
ADCP,ioos:station:wmo:42369:1,2014-02-02T18:40:00Z,27.2070,-90.2830,60.4,11.5,133.0,99.0,'11111222,11111222,11144222' 
ADCP,ioos:station:wmo:42369:1,2014-02-02T19:00:00Z,27.2070,-90.2830,60.4,11.0,127.0,99.0,'11111222,11111222,11144222' 
ADCP,ioos:station:wmo:42369:1,2014-02-02T19:20:00Z,27.2070,-90.2830,60.4,10.9,126.0,99.0,'11111222,11111222,11144222' 
ADCP,ioos:station:wmo:42369:1,2014-02-02T19:40:00Z,27.2070,-90.2830,60.4,10.6,134.0,99.0,'11111222,11111222,11144222' 
ADCP,ioos:station:wmo:42369:1,2014-02-02T20:00:00Z,27.2070,-90.2830,60.4,10.3,135.0,99.0,'11111222,11111222,11144222' 
ADCP,ioos:station:wmo:42369:1,2014-02-02T20:20:00Z,27.2070,-90.2830,60.4,9.9,133.0,99.0,'11111222,11111222,11144222' 
ADCP,ioos:station:wmo:42369:1,2014-02-02T20:40:00Z,27.2070,-90.2830,60.4,9.9,133.0,99.0,'11111222,11111222,11144222' 
ADCP,ioos:station:wmo:42369:1,2014-02-02T21:00:00Z,27.2070,-90.2830,60.4,9.9,130.0,99.0,'11111222,11111222,11144222' 
ADCP,ioos:station:wmo:42369:1,2014-02-02T21:20:00Z,27.2070,-90.2830,60.4,9.2,138.0,99.0,'11111222,11111222,11144222' 
ADCP,ioos:station:wmo:42369:1,2014-02-02T21:40:00Z,27.2070,-90.2830,60.4,9.1,137.0,99.0,'11111222,11111222,11144222' 
ADCP,ioos:station:wmo:42369:1,2014-02-02T22:00:00Z,27.2070,-90.2830,60.4,8.9,138.0,99.0,'11111222,11111222,11144222' 
ADCP,ioos:station:wmo:42369:1,2014-02-02T22:20:00Z,27.2070,-90.2830,60.4,8.8,138.0,99.0,'11111222,11111222,11144222' 
ADCP,ioos:station:wmo:42369:1,2014-02-02T22:40:00Z,27.2070,-90.2830,60.4,8.8,138.0,99.0,'11111222,11111222,11144222' 
ADCP,ioos:station:wmo:42369:1,2014-02-02T23:00:00Z,27.2070,-90.2830,60.4,8.8,137.0,99.0,'11111222,11111222,11144222' 
ADCP,ioos:station:wmo:42369:1,2014-02-02T23:20:00Z,27.2070,-90.2830,60.4,9.0,136.0,99.0,'11111222,11111222,11144222' 
ADCP,ioos:station:wmo:42369:1,2014-02-02T23:40:00Z,27.2070,-90.2830,60.4,9.1,137.0,99.0,'11111222,11111222,11144222' 
ADCP,ioos:station:wmo:42369:1,2014-02-03T00:00:00Z,27.2070,-90.2830,60.4,9.1,137.0,99.0,'11111222,11111222,11144222' 
ADCP,ioos:station:wmo:42369:1,2014-02-03T00:20:00Z,27.2070,-90.2830,60.4,8.7,137.0,99.0,'11111222,11111222,11144222' 
ADCP,ioos:station:wmo:42369:1,2014-02-03T00:40:00Z,27.2070,-90.2830,60.4,8.0,139.0,99.0,'11111222,11111222,11144222' 
ADCP,ioos:station:wmo:42369:1,2014-02-03T01:00:00Z,27.2070,-90.2830,60.4,8.4,141.0,99.0,'11111222,11111222,11144222' 
ADCP,ioos:station:wmo:42369:1,2014-02-03T01:20:00Z,27.2070,-90.2830,60.4,8.6,143.0,99.0,'11111222,11111222,11144222' 
ADCP,ioos:station:wmo:42369:1,2014-02-03T01:40:00Z,27.2070,-90.2830,60.4,8.5,146.0,99.0,'11111222,11111222,11144222' 
ADCP,ioos:station:wmo:42369:1,2014-02-03T02:00:00Z,27.2070,-90.2830,60.4,8.5,146.0,99.0,'11111222,11111222,11144222' 
ADCP,ioos:station:wmo:42369:1,2014-02-03T02:20:00Z,27.2070,-90.2830,60.4,8.5,146.0,99.0,'11111222,11111222,11144222' 
ADCP,ioos:station:wmo:42369:1,2014-02-03T02:40:00Z,27.2070,-90.2830,60.4,8.5,146.0,99.0,'11111222,11111222,11144222' 
ADCP,ioos:station:wmo:42369:1,2014-02-03T03:00:00Z,27.2070,-90.2830,60.4,8.6,149.0,99.0,'11111222,11111222,11144222' 
ADCP,ioos:station:wmo:42369:1,2014-02-03T03:20:00Z,27.2070,-90.2830,60.4,8.6,149.0,99.0,'11111222,11111222,11144222' 
ADCP,ioos:station:wmo:42369:1,2014-02-03T03:40:00Z,27.2070,-90.2830,60.4,8.6,150.0,99.0,'11111222,11111222,11144222' 
ADCP,ioos:station:wmo:42369:1,2014-02-03T04:00:00Z,27.2070,-90.2830,60.4,8.6,150.0,99.0,'11111222,11111222,11144222' 
ADCP,ioos:station:wmo:42369:1,2014-02-03T04:20:00Z,27.2070,-90.2830,60.4,8.6,150.0,99.0,'11111222,11111222,11144222' 
ADCP,ioos:station:wmo:42369:1,2014-02-03T04:40:00Z,27.2070,-90.2830,60.4,7.5,155.0,99.0,'11111222,11111222,11144222' 
ADCP,ioos:station:wmo:42369:1,2014-02-03T05:00:00Z,27.2070,-90.2830,60.4,7.5,155.0,99.0,'11111222,11111222,11144222' 
ADCP,ioos:station:wmo:42369:1,2014-02-03T05:20:00Z,27.2070,-90.2830,60.4,5.9,162.0,99.0,'11111222,11111222,11144222' 
ADCP,ioos:station:wmo:42369:1,2014-02-03T05:40:00Z,27.2070,-90.2830,60.4,5.9,163.0,99.0,'11111222,11111222,11144222' 
ADCP,ioos:station:wmo:42369:1,2014-02-03T06:00:00Z,27.2070,-90.2830,60.4,6.9,174.0,99.0,'11111222,11111222,11144222' 
ADCP,ioos:station:wmo:42369:1,2014-02-03T06:20:00Z,27.2070,-90.2830,60.4,6.9,174.0,99.0,'11111222,11111222,11144222' 
ADCP,ioos:station:wmo:42369:1,2014-02-03T06:40:00Z,27.2070,-90.2830,60.4,6.9,174.0,99.0,'11111222,11111222,11144222' 
ADCP,ioos:station:wmo:42369:1,2014-02-03T07:00:00Z,27.2070,-90.2830,60.4,6.9,174.0,99.0,'11111222,11111222,11144222' 
ADCP,ioos:station:wmo:42369:1,2014-02-03T07:20:00Z,27.2070,-90.2830,60.4,3.3,201.0,99.0,'11111222,11111222,11144222' 
ADCP,ioos:station:wmo:42369:1,2014-02-03T07:40:00Z,27.2070,-90.2830,60.4,3.2,209.0,99.0,'11111222,11111222,11144222' 
ADCP,ioos:station:wmo:42369:1,2014-02-03T08:00:00Z,27.2070,-90.2830,60.4,3.5,213.0,99.0,'11111222,11111222,11144222' 
ADCP,ioos:station:wmo:42369:1,2014-02-03T08:20:00Z,27.2070,-90.2830,60.4,3.5,213.0,99.0,'11111222,11111222,11144222' 
ADCP,ioos:station:wmo:42369:1,2014-02-03T08:40:00Z,27.2070,-90.2830,60.4,2.3,224.0,99.0,'11111222,11111222,11144222' 
ADCP,ioos:station:wmo:42369:1,2014-02-03T09:00:00Z,27.2070,-90.2830,60.4,1.0,238.0,99.0,'11111222,11111222,11144222' 
ADCP,ioos:station:wmo:42369:1,2014-02-03T09:20:00Z,27.2070,-90.2830,60.4,1.0,238.0,99.0,'11111222,11111222,11144222' 
ADCP,ioos:station:wmo:42369:1,2014-02-03T09:40:00Z,27.2070,-90.2830,60.4,0.0,212.0,99.0,'11111222,11111222,11144222' 
ADCP,ioos:station:wmo:42369:1,2014-02-03T10:00:00Z,27.2070,-90.2830,60.4,0.4,212.0,99.0,'11111222,11111222,11144222' 
ADCP,ioos:station:wmo:42369:1,2014-02-03T10:20:00Z,27.2070,-90.2830,60.4,1.8,218.0,99.0,'11111222,11111222,11144222' 
ADCP,ioos:station:wmo:42369:1,2014-02-03T10:40:00Z,27.2070,-90.2830,60.4,0.0,241.0,99.0,'11111222,11111222,11144222' 
ADCP,ioos:station:wmo:42369:1,2014-02-03T11:00:00Z,27.2070,-90.2830,60.4,0.0,241.0,99.0,'11111222,11111222,11144222' 
ADCP,ioos:station:wmo:42369:1,2014-02-03T11:20:00Z,27.2070,-90.2830,60.4,0.0,224.0,99.0,'11111222,11111222,11144222' 
ADCP,ioos:station:wmo:42369:1,2014-02-03T11:40:00Z,27.2070,-90.2830,60.4,0.2,213.0,99.0,'11111222,11111222,11144222' 
ADCP,ioos:station:wmo:42369:1,2014-02-03T12:00:00Z,27.2070,-90.2830,60.4,0.2,213.0,99.0,'11111222,11111222,11144222' 
ADCP,ioos:station:wmo:42369:1,2014-02-03T12:20:00Z,27.2070,-90.2830,60.4,5.3,301.0,99.0,'11111222,11111222,11144222' 
ADCP,ioos:station:wmo:42369:1,2014-02-03T12:40:00Z,27.2070,-90.2830,60.4,5.3,301.0,99.0,'11111222,11111222,11144222' 
ADCP,ioos:station:wmo:42369:1,2014-02-03T13:00:00Z,27.2070,-90.2830,60.4,5.3,301.0,99.0,'11111222,11111222,11144222' 
ADCP,ioos:station:wmo:42369:1,2014-02-03T13:20:00Z,27.2070,-90.2830,60.4,5.3,301.0,99.0,'11111222,11111222,11144222' 
ADCP,ioos:station:wmo:42369:1,2014-02-03T13:40:00Z,27.2070,-90.2830,60.4,5.3,301.0,99.0,'11111222,11111222,11144222' 
ADCP,ioos:station:wmo:42369:1,2014-02-03T14:00:00Z,27.2070,-90.2830,60.4,5.3,301.0,99.0,'11111222,11111222,11144222' 
ADCP,ioos:station:wmo:42369:1,2014-02-03T14:20:00Z,27.2070,-90.2830,60.4,8.2,332.0,99.0,'11111222,11111222,11144222' 
ADCP,ioos:station:wmo:42369:1,2014-02-03T14:40:00Z,27.2070,-90.2830,60.4,7.2,335.0,99.0,'11111222,11111222,11144222' 
ADCP,ioos:station:wmo:42369:1,2014-02-03T15:00:00Z,27.2070,-90.2830,60.4,7.2,335.0,99.0,'11111222,11111222,11144222' 
ADCP,ioos:station:wmo:42369:1,2014-02-03T15:20:00Z,27.2070,-90.2830,60.4,7.2,335.0,99.0,'11111222,11111222,11144222' 
ADCP,ioos:station:wmo:42369:1,2014-02-03T15:40:00Z,27.2070,-90.2830,60.4,6.5,337.0,99.0,'11111222,11111222,11144222' 
ADCP,ioos:station:wmo:42369:1,2014-02-03T16:00:00Z,27.2070,-90.2830,60.4,5.5,268.0,99.0,'11111222,11111222,11144222' 
ADCP,ioos:station:wmo:42369:1,2014-02-03T16:20:00Z,27.2070,-90.2830,60.4,5.5,268.0,99.0,'11111222,11111222,11144222' 
ADCP,ioos:station:wmo:42369:1,2014-02-03T16:40:00Z,27.2070,-90.2830,60.4,5.5,268.0,99.0,'11111222,11111222,11144222' 
ADCP,ioos:station:wmo:42369:1,2014-02-03T17:00:00Z,27.2070,-90.2830,60.4,6.2,72.0,99.0,'11111222,11111222,11144222' 
ADCP,ioos:station:wmo:42369:1,2014-02-03T17:20:00Z,27.2070,-90.2830,60.4,6.2,283.0,99.0,'11111222,11111222,11144222' 
ADCP,ioos:station:wmo:42369:1,2014-02-03T17:40:00Z,27.2070,-90.2830,60.4,6.2,283.0,99.0,'11111222,11111222,11144222' 
ADCP,ioos:station:wmo:42369:1,2014-02-03T18:00:00Z,27.2070,-90.2830,60.4,6.0,343.0,99.0,'11111222,11111222,11144222' 
ADCP,ioos:station:wmo:42369:1,2014-02-03T18:20:00Z,27.2070,-90.2830,60.4,5.7,346.0,99.0,'11111222,11111222,11144222' 
ADCP,ioos:station:wmo:42369:1,2014-02-03T18:40:00Z,27.2070,-90.2830,60.4,6.3,311.0,99.0,'11111222,11111222,11144222' 
ADCP,ioos:station:wmo:42369:1,2014-02-03T19:00:00Z,27.2070,-90.2830,60.4,6.3,311.0,99.0,'11111222,11111222,11144222' 